Station Historical Data
 
Daily Summary for July 20, 2019 Units:  Metric    English   Both
« Previous Day
Next Day »
Daily Weekly Monthly Yearly Custom
  Current: High: Low: Average:
Temperature: 28.7 °C 33.6 °C 23.5 °C 28.1 °C
Dew Point: 17.9 °C 22.3 °C 16.4 °C 19.6 °C
Humidity: 52% 78% 42% 62%
Wind Speed: 4.8km/h 20.9km/h 0.0km/h 8.3km/h
Wind Gust: 9.7km/h 37.0km/h - -
WindNNW - - South
Pressure: 1014.3 hPa 1014.3 hPa 1011.2 hPa -
Precipitation: 0.0 mm      
Historical Graphs
 
 
Tabular Data for July 20, 2019
Time Temperature Dew Point Pressure Wind Wind Speed Wind Gust Humidity Rainfall Rate (Hourly) solar Conditions
00:00 24.8 °C 19.4 °C 1012.5 hPa NW 1.6 km/h 6.4 km/h 72% 0.0 mm 0.00 W/m2 CLR
00:05 24.8 °C 19.4 °C 1012.4 hPa WNW 3.2 km/h 4.8 km/h 72% 0.0 mm 0.00 W/m2 CLR
00:10 24.8 °C 19.4 °C 1012.4 hPa Calm   8.0 km/h 72% 0.0 mm 0.00 W/m2 CLR
00:15 24.8 °C 19.4 °C 1012.5 hPa Calm   6.4 km/h 72% 0.0 mm 0.00 W/m2 CLR
00:20 24.8 °C 19.4 °C 1012.4 hPa NNW 1.6 km/h 6.4 km/h 72% 0.0 mm 0.00 W/m2 CLR
00:25 24.8 °C 19.4 °C 1012.4 hPa NNW 1.6 km/h 4.8 km/h 72% 0.0 mm 0.00 W/m2 CLR
00:30 24.8 °C 19.4 °C 1012.5 hPa NW 3.2 km/h 6.4 km/h 72% 0.0 mm 0.00 W/m2 CLR
00:35 24.8 °C 19.4 °C 1012.5 hPa NW 1.6 km/h 6.4 km/h 72% 0.0 mm 0.00 W/m2 CLR
00:40 24.7 °C 19.1 °C 1012.4 hPa NNW 3.2 km/h 8.0 km/h 71% 0.0 mm 0.00 W/m2 CLR
00:45 24.7 °C 19.1 °C 1012.4 hPa NNW 1.6 km/h 6.4 km/h 71% 0.0 mm 0.00 W/m2 CLR
00:50 24.7 °C 18.8 °C 1012.4 hPa NNW 1.6 km/h 6.4 km/h 70% 0.0 mm 0.00 W/m2 CLR
00:55 24.6 °C 18.8 °C 1012.5 hPa NNW 1.6 km/h 9.7 km/h 70% 0.0 mm 0.00 W/m2 CLR
01:00 24.7 °C 18.8 °C 1012.5 hPa NW 1.6 km/h 6.4 km/h 70% 0.0 mm 0.00 W/m2 CLR
01:05 24.6 °C 18.8 °C 1012.5 hPa Calm   4.8 km/h 70% 0.0 mm 0.00 W/m2 CLR
01:10 24.6 °C 18.8 °C 1012.5 hPa NW 3.2 km/h 6.4 km/h 70% 0.0 mm 0.00 W/m2 CLR
01:15 24.7 °C 19.1 °C 1012.5 hPa Calm   6.4 km/h 71% 0.0 mm 0.00 W/m2 CLR
01:20 24.7 °C 19.1 °C 1012.5 hPa WNW 1.6 km/h 4.8 km/h 71% 0.0 mm 0.00 W/m2 CLR
01:25 24.7 °C 19.1 °C 1012.6 hPa West 1.6 km/h 6.4 km/h 71% 0.0 mm 0.00 W/m2 CLR
01:30 24.7 °C 19.1 °C 1012.5 hPa WNW 1.6 km/h 4.8 km/h 71% 0.0 mm 0.00 W/m2 CLR
01:35 24.7 °C 19.1 °C 1012.6 hPa Calm   8.0 km/h 71% 0.0 mm 0.00 W/m2 CLR
01:40 24.7 °C 19.3 °C 1012.6 hPa WNW 1.6 km/h 6.4 km/h 72% 0.0 mm 0.00 W/m2 CLR
01:45 24.6 °C 19.2 °C 1012.7 hPa WNW 1.6 km/h 3.2 km/h 72% 0.0 mm 0.00 W/m2 CLR
01:50 24.6 °C 19.0 °C 1012.7 hPa NW 1.6 km/h 6.4 km/h 71% 0.0 mm 0.00 W/m2 CLR
01:55 24.6 °C 18.9 °C 1012.5 hPa Calm   1.6 km/h 71% 0.0 mm 0.00 W/m2 CLR
02:00 24.5 °C 18.7 °C 1012.4 hPa NW 3.2 km/h 4.8 km/h 70% 0.0 mm 0.00 W/m2 CLR
02:05 24.5 °C 18.7 °C 1012.4 hPa NW 1.6 km/h 4.8 km/h 70% 0.0 mm 0.00 W/m2 CLR
02:10 24.5 °C 18.9 °C 1012.4 hPa NNW 1.6 km/h 4.8 km/h 71% 0.0 mm 0.00 W/m2 CLR
02:15 24.6 °C 19.2 °C 1012.4 hPa NW 1.6 km/h 3.2 km/h 72% 0.0 mm 0.00 W/m2 CLR
02:20 24.5 °C 18.9 °C 1012.3 hPa Calm   4.8 km/h 71% 0.0 mm 0.00 W/m2 CLR
02:25 24.5 °C 18.9 °C 1012.3 hPa NNW 1.6 km/h 3.2 km/h 71% 0.0 mm 0.00 W/m2 CLR
02:30 24.5 °C 19.1 °C 1012.4 hPa NNW 1.6 km/h 3.2 km/h 72% 0.0 mm 0.00 W/m2 CLR
02:35 24.6 °C 19.2 °C 1012.3 hPa NNW 1.6 km/h 6.4 km/h 72% 0.0 mm 0.00 W/m2 CLR
02:40 24.6 °C 19.4 °C 1012.1 hPa North 3.2 km/h 4.8 km/h 73% 0.0 mm 0.00 W/m2 CLR
02:45 24.5 °C 19.1 °C 1012.1 hPa NNW 3.2 km/h 6.4 km/h 72% 0.0 mm 0.00 W/m2 CLR
02:50 24.5 °C 19.3 °C 1012.2 hPa NNW 1.6 km/h 6.4 km/h 73% 0.0 mm 0.00 W/m2 CLR
02:55 24.5 °C 19.3 °C 1012.1 hPa NNW 3.2 km/h 6.4 km/h 73% 0.0 mm 0.00 W/m2 CLR
03:00 24.4 °C 19.1 °C 1012.1 hPa NNW 4.8 km/h 8.0 km/h 72% 0.0 mm 0.00 W/m2 CLR
03:05 24.4 °C 19.1 °C 1012.0 hPa NNW 4.8 km/h 9.7 km/h 72% 0.0 mm 0.00 W/m2 CLR
03:10 24.4 °C 19.1 °C 1012.0 hPa NNW 3.2 km/h 9.7 km/h 72% 0.0 mm 0.00 W/m2 CLR
03:15 24.4 °C 19.0 °C 1012.0 hPa NNW 3.2 km/h 9.7 km/h 72% 0.0 mm 0.00 W/m2 CLR
03:20 24.4 °C 19.0 °C 1011.9 hPa NNW 3.2 km/h 6.4 km/h 72% 0.0 mm 0.00 W/m2 CLR
03:25 24.4 °C 19.2 °C 1011.8 hPa NNW 1.6 km/h 8.0 km/h 73% 0.0 mm 0.00 W/m2 CLR
03:30 24.3 °C 19.1 °C 1011.9 hPa NNW 4.8 km/h 14.5 km/h 73% 0.0 mm 0.00 W/m2 CLR
03:35 24.2 °C 19.1 °C 1011.8 hPa NNW 8.0 km/h 12.9 km/h 73% 0.0 mm 0.00 W/m2 CLR
03:40 24.1 °C 18.9 °C 1011.8 hPa North 8.0 km/h 16.1 km/h 73% 0.0 mm 0.00 W/m2 CLR
03:45 24.1 °C 19.1 °C 1011.7 hPa North 9.7 km/h 12.9 km/h 74% 0.0 mm 0.00 W/m2 CLR
03:50 24.0 °C 19.1 °C 1011.6 hPa NNW 8.0 km/h 14.5 km/h 74% 0.0 mm 0.00 W/m2 CLR
03:55 24.1 °C 19.3 °C 1011.7 hPa NNW 8.0 km/h 14.5 km/h 75% 0.0 mm 0.00 W/m2 CLR
04:00 24.1 °C 19.4 °C 1011.8 hPa NNW 8.0 km/h 16.1 km/h 75% 0.0 mm 0.00 W/m2 CLR
04:05 24.1 °C 19.4 °C 1011.8 hPa NNW 8.0 km/h 14.5 km/h 75% 0.0 mm 0.00 W/m2 CLR
04:10 24.1 °C 19.4 °C 1011.8 hPa NNW 4.8 km/h 11.3 km/h 75% 0.0 mm 0.00 W/m2 CLR
04:15 24.1 °C 19.4 °C 1011.9 hPa NW 4.8 km/h 14.5 km/h 75% 0.0 mm 0.00 W/m2 CLR
04:20 24.1 °C 19.2 °C 1011.8 hPa NNW 8.0 km/h 12.9 km/h 74% 0.0 mm 0.00 W/m2 CLR
04:25 24.1 °C 19.1 °C 1011.8 hPa NNW 8.0 km/h 19.3 km/h 74% 0.0 mm 0.00 W/m2 CLR
04:30 24.1 °C 19.1 °C 1011.9 hPa NNW 3.2 km/h 14.5 km/h 74% 0.0 mm 0.00 W/m2 CLR
04:35 24.0 °C 19.1 °C 1011.9 hPa NNW 8.0 km/h 14.5 km/h 74% 0.0 mm 0.00 W/m2 CLR
04:40 23.9 °C 19.0 °C 1011.9 hPa NNW 3.2 km/h 14.5 km/h 74% 0.0 mm 0.00 W/m2 CLR
04:45 23.9 °C 18.9 °C 1011.9 hPa NNW 8.0 km/h 12.9 km/h 74% 0.0 mm 0.00 W/m2 CLR
04:50 23.8 °C 18.7 °C 1011.8 hPa NNW 9.7 km/h 14.5 km/h 73% 0.0 mm 0.00 W/m2 CLR
04:55 23.7 °C 18.6 °C 1011.9 hPa NNW 4.8 km/h 12.9 km/h 73% 0.0 mm 0.00 W/m2 CLR
05:00 23.6 °C 18.2 °C 1011.9 hPa NNW 9.7 km/h 14.5 km/h 72% 0.0 mm 0.00 W/m2 CLR
05:05 23.5 °C 18.2 °C 1011.8 hPa North 8.0 km/h 12.9 km/h 72% 0.0 mm 0.00 W/m2 CLR
05:10 23.5 °C 18.2 °C 1011.8 hPa North 9.7 km/h 14.5 km/h 72% 0.0 mm 0.00 W/m2 CLR
05:15 23.5 °C 18.2 °C 1011.8 hPa North 8.0 km/h 16.1 km/h 72% 0.0 mm 0.00 W/m2 CLR
05:20 23.5 °C 18.2 °C 1011.7 hPa NNW 8.0 km/h 12.9 km/h 72% 0.0 mm 0.00 W/m2 CLR
05:25 23.5 °C 18.2 °C 1011.8 hPa NNW 4.8 km/h 12.9 km/h 72% 0.0 mm 0.00 W/m2 CLR
05:30 23.5 °C 18.2 °C 1011.7 hPa NNW 9.7 km/h 14.5 km/h 72% 0.0 mm 0.00 W/m2 CLR
05:35 23.6 °C 18.2 °C 1011.8 hPa North 8.0 km/h 12.9 km/h 72% 0.0 mm 0.00 W/m2 CLR
05:40 23.6 °C 18.2 °C 1011.6 hPa NNW 8.0 km/h 12.9 km/h 72% 0.0 mm 0.00 W/m2 CLR
05:45 23.6 °C 18.3 °C 1011.5 hPa NNW 8.0 km/h 14.5 km/h 72% 0.0 mm 0.00 W/m2 CLR
05:50 23.7 °C 18.1 °C 1011.4 hPa NNW 8.0 km/h 14.5 km/h 71% 0.0 mm 0.00 W/m2 CLR
05:55 23.7 °C 18.2 °C 1011.4 hPa NNW 9.7 km/h 14.5 km/h 71% 0.0 mm 0.00 W/m2 CLR
06:00 23.8 °C 18.2 °C 1011.3 hPa NNW 8.0 km/h 14.5 km/h 71% 0.0 mm 0.00 W/m2 CLR
06:05 23.8 °C 18.1 °C 1011.2 hPa NNW 8.0 km/h 16.1 km/h 70% 0.0 mm 0.00 W/m2 CLR
06:10 23.9 °C 18.1 °C 1011.4 hPa NW 4.8 km/h 14.5 km/h 70% 0.0 mm 0.00 W/m2 CLR
06:15 24.0 °C 18.2 °C 1011.4 hPa NNW 4.8 km/h 14.5 km/h 70% 0.0 mm 0.00 W/m2 CLR
06:20 24.1 °C 18.0 °C 1011.5 hPa NNW 4.8 km/h 12.9 km/h 69% 0.0 mm 0.00 W/m2 OVC
06:25 24.1 °C 18.3 °C 1011.4 hPa NNW 11.3 km/h 16.1 km/h 70% 0.0 mm 0.00 W/m2 OVC
06:30 24.1 °C 18.6 °C 1011.5 hPa NNW 8.0 km/h 16.1 km/h 71% 0.0 mm 0.00 W/m2 OVC
06:35 24.1 °C 18.7 °C 1011.5 hPa NNW 12.9 km/h 20.9 km/h 72% 0.0 mm 0.00 W/m2 OVC
06:40 24.2 °C 19.0 °C 1011.5 hPa NNW 11.3 km/h 20.9 km/h 73% 0.0 mm 0.00 W/m2 OVC
06:45 24.2 °C 19.3 °C 1011.5 hPa NNW 11.3 km/h 20.9 km/h 74% 0.0 mm 0.00 W/m2 OVC
06:50 24.3 °C 19.6 °C 1011.5 hPa North 11.3 km/h 25.7 km/h 75% 0.0 mm 0.00 W/m2 OVC
06:55 24.3 °C 19.8 °C 1011.5 hPa North 8.0 km/h 19.3 km/h 76% 0.0 mm 6.00 W/m2 CLR
07:00 24.3 °C 20.1 °C 1011.4 hPa North 8.0 km/h 24.1 km/h 77% 0.0 mm 10.80 W/m2 FEW
07:05 24.4 °C 20.1 °C 1011.4 hPa North 11.3 km/h 22.5 km/h 77% 0.0 mm 16.80 W/m2 FEW
07:10 24.4 °C 20.1 °C 1011.4 hPa NNW 14.5 km/h 22.5 km/h 77% 0.0 mm 22.80 W/m2 FEW
07:15 24.4 °C 20.1 °C 1011.4 hPa NNW 12.9 km/h 24.1 km/h 77% 0.0 mm 30.00 W/m2 FEW
07:20 24.4 °C 20.3 °C 1011.4 hPa North 12.9 km/h 32.2 km/h 78% 0.0 mm 38.40 W/m2 FEW
07:25 24.4 °C 20.3 °C 1011.5 hPa NNW 9.7 km/h 19.3 km/h 78% 0.0 mm 46.80 W/m2 FEW
07:30 24.4 °C 20.3 °C 1011.4 hPa North 8.0 km/h 24.1 km/h 78% 0.0 mm 58.80 W/m2 FEW
07:35 24.4 °C 20.3 °C 1011.3 hPa NNE 11.3 km/h 27.4 km/h 78% 0.0 mm 69.60 W/m2 FEW
07:40 24.4 °C 20.3 °C 1011.3 hPa NNE 9.7 km/h 22.5 km/h 78% 0.0 mm 84.00 W/m2 FEW
07:45 24.4 °C 20.3 °C 1011.3 hPa North 12.9 km/h 25.7 km/h 78% 0.0 mm 92.40 W/m2 FEW
07:50 24.5 °C 20.4 °C 1011.4 hPa North 14.5 km/h 25.7 km/h 78% 0.0 mm 100.80 W/m2 FEW
07:55 24.5 °C 20.4 °C 1011.3 hPa North 16.1 km/h 27.4 km/h 78% 0.0 mm 111.60 W/m2 FEW
08:00 24.6 °C 20.4 °C 1011.3 hPa North 12.9 km/h 29.0 km/h 78% 0.0 mm 124.80 W/m2 FEW
08:05 24.6 °C 20.3 °C 1011.4 hPa North 11.3 km/h 37.0 km/h 77% 0.0 mm 144.00 W/m2 FEW
08:10 24.7 °C 20.4 °C 1011.4 hPa North 12.9 km/h 29.0 km/h 77% 0.0 mm 164.40 W/m2 CLR
08:15 24.7 °C 20.4 °C 1011.6 hPa North 16.1 km/h 25.7 km/h 77% 0.0 mm 195.60 W/m2 CLR
08:20 24.8 °C 20.3 °C 1011.5 hPa NNE 16.1 km/h 32.2 km/h 76% 0.0 mm 228.00 W/m2 CLR
08:25 24.9 °C 20.4 °C 1011.6 hPa North 14.5 km/h 32.2 km/h 76% 0.0 mm 187.20 W/m2 FEW
08:35 25.0 °C 20.3 °C 1011.7 hPa NNW 16.1 km/h 32.2 km/h 75% 0.0 mm 178.80 W/m2 SCT
08:40 25.1 °C 20.1 °C 1011.8 hPa North 11.3 km/h 29.0 km/h 74% 0.0 mm 175.20 W/m2 SCT
08:45 25.1 °C 20.2 °C 1011.8 hPa North 11.3 km/h 29.0 km/h 74% 0.0 mm 186.00 W/m2 SCT
08:50 25.2 °C 20.2 °C 1011.8 hPa North 12.9 km/h 29.0 km/h 74% 0.0 mm 292.80 W/m2 CLR
08:55 25.3 °C 20.3 °C 1011.8 hPa North 12.9 km/h 27.4 km/h 74% 0.0 mm 253.20 W/m2 FEW
09:00 25.3 °C 20.4 °C 1012.0 hPa North 14.5 km/h 32.2 km/h 74% 0.0 mm 211.20 W/m2 SCT
09:05 25.4 °C 20.4 °C 1012.1 hPa NNE 14.5 km/h 29.0 km/h 74% 0.0 mm 361.20 W/m2 CLR
09:10 25.5 °C 20.6 °C 1012.1 hPa North 12.9 km/h 27.4 km/h 74% 0.0 mm 379.20 W/m2 CLR
09:15 25.7 °C 20.5 °C 1012.1 hPa North 11.3 km/h 24.1 km/h 73% 0.0 mm 390.00 W/m2 CLR
09:20 25.8 °C 20.6 °C 1012.1 hPa NNE 11.3 km/h 27.4 km/h 73% 0.0 mm 414.00 W/m2 CLR
09:25 26.1 °C 20.6 °C 1012.2 hPa North 16.1 km/h 27.4 km/h 72% 0.0 mm 464.40 W/m2 CLR
09:30 26.2 °C 20.8 °C 1012.3 hPa North 12.9 km/h 25.7 km/h 72% 0.0 mm 518.40 W/m2 CLR
09:35 26.4 °C 20.8 °C 1012.3 hPa North 14.5 km/h 29.0 km/h 71% 0.0 mm 352.80 W/m2 FEW
09:40 26.6 °C 20.9 °C 1012.3 hPa North 14.5 km/h 29.0 km/h 71% 0.0 mm 456.00 W/m2 CLR
09:45 26.6 °C 20.7 °C 1012.3 hPa NNE 12.9 km/h 32.2 km/h 70% 0.0 mm 228.00 W/m2 BKN
09:50 26.5 °C 20.8 °C 1012.4 hPa North 14.5 km/h 27.4 km/h 71% 0.0 mm 242.40 W/m2 BKN
09:55 26.4 °C 20.8 °C 1012.4 hPa NNW 16.1 km/h 29.0 km/h 71% 0.0 mm 276.00 W/m2 SCT
10:00 26.4 °C 20.7 °C 1012.3 hPa North 14.5 km/h 29.0 km/h 71% 0.0 mm 314.40 W/m2 SCT
10:05 26.4 °C 20.8 °C 1012.4 hPa North 16.1 km/h 32.2 km/h 71% 0.0 mm 520.80 W/m2 CLR
10:10 26.4 °C 20.8 °C 1012.5 hPa North 14.5 km/h 29.0 km/h 71% 0.0 mm 177.60 W/m2 OVC
10:15 26.3 °C 20.8 °C 1012.3 hPa North 14.5 km/h 32.2 km/h 72% 0.0 mm 175.20 W/m2 OVC
10:20 26.2 °C 20.9 °C 1012.4 hPa North 12.9 km/h 25.7 km/h 73% 0.0 mm 175.20 W/m2 OVC
10:25 26.0 °C 20.6 °C 1012.3 hPa North 12.9 km/h 25.7 km/h 72% 0.0 mm 194.40 W/m2 OVC
10:30 25.9 °C 20.5 °C 1012.3 hPa NNW 14.5 km/h 29.0 km/h 72% 0.0 mm 214.80 W/m2 OVC
10:35 26.0 °C 20.6 °C 1012.4 hPa NNW 16.1 km/h 27.4 km/h 72% 0.0 mm 284.40 W/m2 BKN
10:40 26.1 °C 20.4 °C 1012.4 hPa North 14.5 km/h 27.4 km/h 71% 0.0 mm 274.80 W/m2 BKN
10:45 26.3 °C 20.7 °C 1012.4 hPa NNW 12.9 km/h 20.9 km/h 71% 0.0 mm 308.40 W/m2 BKN
10:50 26.6 °C 20.9 °C 1012.4 hPa NNE 9.7 km/h 24.1 km/h 71% 0.0 mm 348.00 W/m2 BKN
10:55 26.9 °C 20.9 °C 1012.4 hPa North 14.5 km/h 25.7 km/h 70% 0.0 mm 436.80 W/m2 SCT
11:00 27.2 °C 20.7 °C 1012.5 hPa North 14.5 km/h 24.1 km/h 68% 0.0 mm 320.40 W/m2 BKN
11:05 27.2 °C 20.8 °C 1012.5 hPa NNE 12.9 km/h 24.1 km/h 68% 0.0 mm 778.80 W/m2 CLR
11:10 27.5 °C 20.8 °C 1012.5 hPa North 14.5 km/h 27.4 km/h 67% 0.0 mm 778.80 W/m2 CLR
11:15 27.9 °C 20.7 °C 1012.4 hPa North 14.5 km/h 27.4 km/h 65% 0.0 mm 824.40 W/m2 CLR
11:20 28.2 °C 21.0 °C 1012.4 hPa North 20.9 km/h 32.2 km/h 65% 0.0 mm 831.60 W/m2 CLR
11:25 28.4 °C 21.0 °C 1012.6 hPa North 14.5 km/h 29.0 km/h 64% 0.0 mm 840.00 W/m2 CLR
11:30 28.7 °C 20.7 °C 1012.7 hPa North 16.1 km/h 27.4 km/h 62% 0.0 mm 849.60 W/m2 CLR
11:35 28.8 °C 20.8 °C 1012.6 hPa North 16.1 km/h 32.2 km/h 62% 0.0 mm 874.80 W/m2 CLR
11:40 29.1 °C 20.8 °C 1012.7 hPa NNE 14.5 km/h 27.4 km/h 61% 0.0 mm 898.80 W/m2 CLR
11:45 29.2 °C 20.7 °C 1012.6 hPa North 14.5 km/h 29.0 km/h 60% 0.0 mm 894.00 W/m2 CLR
11:50 29.4 °C 20.8 °C 1012.7 hPa North 11.3 km/h 32.2 km/h 60% 0.0 mm 898.80 W/m2 CLR
11:55 29.6 °C 20.8 °C 1012.7 hPa North 11.3 km/h 22.5 km/h 59% 0.0 mm 907.20 W/m2 CLR
12:00 29.8 °C 20.6 °C 1012.8 hPa North 16.1 km/h 25.7 km/h 58% 0.0 mm 918.00 W/m2 CLR
12:05 29.9 °C 20.7 °C 1012.7 hPa NNW 9.7 km/h 27.4 km/h 58% 0.0 mm 934.80 W/m2 CLR
12:10 30.0 °C 20.8 °C 1012.8 hPa North 12.9 km/h 25.7 km/h 58% 0.0 mm 932.40 W/m2 CLR
12:15 30.1 °C 20.9 °C 1012.8 hPa North 14.5 km/h 25.7 km/h 58% 0.0 mm 946.80 W/m2 CLR
12:20 30.2 °C 20.7 °C 1012.8 hPa NNW 14.5 km/h 25.7 km/h 57% 0.0 mm 972.00 W/m2 CLR
12:25 30.1 °C 20.3 °C 1012.8 hPa NNE 14.5 km/h 32.2 km/h 56% 0.0 mm 972.00 W/m2 CLR
12:30 30.1 °C 20.3 °C 1012.9 hPa North 14.5 km/h 27.4 km/h 56% 0.0 mm 976.80 W/m2 CLR
12:35 30.2 °C 20.4 °C 1012.9 hPa North 14.5 km/h 24.1 km/h 56% 0.0 mm 985.20 W/m2 CLR
12:40 30.3 °C 20.9 °C 1013.0 hPa NNE 16.1 km/h 24.1 km/h 57% 0.0 mm 996.00 W/m2 CLR
12:45 30.4 °C 20.9 °C 1013.0 hPa NNE 11.3 km/h 29.0 km/h 57% 0.0 mm 996.00 W/m2 CLR
12:50 30.5 °C 21.0 °C 1012.9 hPa NNE 12.9 km/h 25.7 km/h 57% 0.0 mm 999.60 W/m2 CLR
12:55 30.6 °C 21.1 °C 1012.8 hPa NNE 11.3 km/h 25.7 km/h 57% 0.0 mm 1010.40 W/m2 CLR
13:00 30.7 °C 21.2 °C 1012.8 hPa NNE 12.9 km/h 29.0 km/h 57% 0.0 mm 1015.20 W/m2 CLR
13:05 30.8 °C 21.0 °C 1012.8 hPa NNE 14.5 km/h 25.7 km/h 56% 0.0 mm 1021.20 W/m2 CLR
13:10 30.8 °C 21.3 °C 1012.8 hPa NNE 14.5 km/h 27.4 km/h 57% 0.0 mm 1033.20 W/m2 CLR
13:15 30.9 °C 21.2 °C 1012.8 hPa North 16.1 km/h 33.8 km/h 56% 0.0 mm 1040.40 W/m2 CLR
13:20 31.1 °C 21.6 °C 1012.9 hPa North 12.9 km/h 25.7 km/h 57% 0.0 mm 1048.80 W/m2 CLR
13:25 31.1 °C 21.6 °C 1012.9 hPa North 11.3 km/h 33.8 km/h 57% 0.0 mm 1044.00 W/m2 CLR
13:30 31.3 °C 21.7 °C 1012.9 hPa NNE 11.3 km/h 27.4 km/h 57% 0.0 mm 1052.40 W/m2 CLR
13:35 31.4 °C 21.6 °C 1012.9 hPa NNE 11.3 km/h 24.1 km/h 56% 0.0 mm 1054.80 W/m2 CLR
13:40 31.3 °C 21.5 °C 1013.0 hPa North 11.3 km/h 24.1 km/h 56% 0.0 mm 1054.80 W/m2 CLR
13:45 31.4 °C 21.6 °C 1012.9 hPa North 12.9 km/h 20.9 km/h 56% 0.0 mm 1066.80 W/m2 CLR
13:50 31.6 °C 21.8 °C 1013.0 hPa North 8.0 km/h 22.5 km/h 56% 0.0 mm 1057.20 W/m2 CLR
13:55 31.8 °C 21.9 °C 1013.0 hPa North 12.9 km/h 24.1 km/h 56% 0.0 mm 1060.80 W/m2 CLR
14:00 31.9 °C 21.7 °C 1013.0 hPa North 14.5 km/h 22.5 km/h 55% 0.0 mm 1065.60 W/m2 CLR
14:05 31.9 °C 22.1 °C 1013.0 hPa North 12.9 km/h 25.7 km/h 56% 0.0 mm 1060.80 W/m2 CLR
14:10 32.1 °C 21.9 °C 1013.0 hPa North 9.7 km/h 24.1 km/h 55% 0.0 mm 1054.80 W/m2 CLR
14:15 32.2 °C 22.0 °C 1013.0 hPa North 11.3 km/h 22.5 km/h 55% 0.0 mm 1063.20 W/m2 CLR
14:20 32.2 °C 22.1 °C 1013.0 hPa North 9.7 km/h 20.9 km/h 55% 0.0 mm 1063.20 W/m2 CLR
14:25 32.6 °C 22.3 °C 1012.9 hPa NNE 9.7 km/h 19.3 km/h 55% 0.0 mm 1066.80 W/m2 CLR
14:30 32.7 °C 22.1 °C 1012.9 hPa North 9.7 km/h 22.5 km/h 54% 0.0 mm 1065.60 W/m2 CLR
14:35 32.7 °C 21.9 °C 1012.8 hPa NNW 9.7 km/h 20.9 km/h 53% 0.0 mm 1063.20 W/m2 CLR
14:40 32.8 °C 22.0 °C 1012.9 hPa North 12.9 km/h 24.1 km/h 53% 0.0 mm 1060.80 W/m2 CLR
14:45 33.0 °C 22.2 °C 1012.9 hPa North 11.3 km/h 22.5 km/h 53% 0.0 mm 1058.40 W/m2 CLR
14:50 33.2 °C 22.3 °C 1012.9 hPa North 9.7 km/h 20.9 km/h 53% 0.0 mm 1057.20 W/m2 CLR
14:55 33.2 °C 21.4 °C 1012.9 hPa North 4.8 km/h 16.1 km/h 50% 0.0 mm 1060.80 W/m2 CLR
15:00 33.4 °C 20.6 °C 1012.9 hPa NNE 11.3 km/h 19.3 km/h 47% 0.0 mm 1052.40 W/m2 CLR
15:05 33.5 °C 19.9 °C 1012.8 hPa NE 3.2 km/h 19.3 km/h 45% 0.0 mm 1046.40 W/m2 CLR
15:10 33.6 °C 19.6 °C 1012.9 hPa ENE 9.7 km/h 19.3 km/h 44% 0.0 mm 1044.00 W/m2 CLR
15:15 33.6 °C 19.3 °C 1013.1 hPa NE 11.3 km/h 22.5 km/h 43% 0.0 mm 1041.60 W/m2 CLR
15:20 33.6 °C 20.1 °C 1013.0 hPa ENE 11.3 km/h 19.3 km/h 45% 0.0 mm 1029.60 W/m2 CLR
15:25 33.6 °C 20.0 °C 1013.1 hPa ENE 12.9 km/h 24.1 km/h 45% 0.0 mm 1021.20 W/m2 CLR
15:30 33.2 °C 20.0 °C 1013.2 hPa ENE 8.0 km/h 20.9 km/h 46% 0.0 mm 1010.40 W/m2 CLR
15:35 33.2 °C 20.1 °C 1013.1 hPa NE 11.3 km/h 20.9 km/h 46% 0.0 mm 1002.00 W/m2 CLR
15:40 33.2 °C 20.0 °C 1013.2 hPa NE 8.0 km/h 20.9 km/h 46% 0.0 mm 988.80 W/m2 CLR
15:45 33.2 °C 20.7 °C 1013.2 hPa NE 4.8 km/h 19.3 km/h 48% 0.0 mm 988.80 W/m2 CLR
15:50 33.2 °C 20.7 °C 1013.0 hPa NE 11.3 km/h 19.3 km/h 48% 0.0 mm 976.80 W/m2 CLR
15:55 33.1 °C 20.3 °C 1013.1 hPa NE 12.9 km/h 27.4 km/h 47% 0.0 mm 970.80 W/m2 CLR
16:00 33.2 °C 20.4 °C 1013.0 hPa NE 8.0 km/h 20.9 km/h 47% 0.0 mm 963.60 W/m2 CLR
16:05 33.3 °C 20.2 °C 1013.1 hPa NE 9.7 km/h 16.1 km/h 46% 0.0 mm 949.20 W/m2 CLR
16:10 33.4 °C 20.6 °C 1013.0 hPa NE 12.9 km/h 24.1 km/h 47% 0.0 mm 943.20 W/m2 CLR
16:15 33.3 °C 20.8 °C 1013.0 hPa ENE 3.2 km/h 19.3 km/h 48% 0.0 mm 927.60 W/m2 CLR
16:20 33.3 °C 21.4 °C 1013.0 hPa ENE 8.0 km/h 19.3 km/h 50% 0.0 mm 913.20 W/m2 CLR
16:25 33.3 °C 21.4 °C 1012.9 hPa NE 4.8 km/h 16.1 km/h 50% 0.0 mm 902.40 W/m2 CLR
16:30 33.2 °C 20.4 °C 1012.8 hPa NE 12.9 km/h 19.3 km/h 47% 0.0 mm 890.40 W/m2 CLR
16:35 33.2 °C 20.7 °C 1012.8 hPa NE 8.0 km/h 19.3 km/h 48% 0.0 mm 879.60 W/m2 CLR
16:40 33.2 °C 20.1 °C 1012.9 hPa NE 9.7 km/h 19.3 km/h 46% 0.0 mm 860.40 W/m2 CLR
16:45 33.3 °C 20.1 °C 1012.9 hPa NNE 9.7 km/h 14.5 km/h 46% 0.0 mm 843.60 W/m2 CLR
16:50 33.3 °C 20.4 °C 1012.9 hPa NE 8.0 km/h 16.1 km/h 47% 0.0 mm 831.60 W/m2 CLR
16:55 33.3 °C 20.4 °C 1012.9 hPa NE 4.8 km/h 11.3 km/h 47% 0.0 mm 812.40 W/m2 CLR
17:00 33.4 °C 20.6 °C 1012.8 hPa NE 3.2 km/h 14.5 km/h 47% 0.0 mm 804.00 W/m2 CLR
17:05 33.4 °C 20.3 °C 1012.9 hPa NE 3.2 km/h 12.9 km/h 46% 0.0 mm 790.80 W/m2 CLR
17:10 33.4 °C 20.6 °C 1012.9 hPa ENE 4.8 km/h 14.5 km/h 47% 0.0 mm 778.80 W/m2 CLR
17:15 33.5 °C 20.7 °C 1012.9 hPa NE 9.7 km/h 19.3 km/h 47% 0.0 mm 762.00 W/m2 CLR
17:20 33.2 °C 19.7 °C 1012.9 hPa ENE 4.8 km/h 14.5 km/h 45% 0.0 mm 753.60 W/m2 CLR
17:25 33.3 °C 20.5 °C 1012.9 hPa ENE 4.8 km/h 12.9 km/h 47% 0.0 mm 738.00 W/m2 CLR
17:30 33.4 °C 20.6 °C 1012.9 hPa NNE 4.8 km/h 12.9 km/h 47% 0.0 mm 718.80 W/m2 CLR
17:35 33.5 °C 20.7 °C 1012.9 hPa NNE 8.0 km/h 11.3 km/h 47% 0.0 mm 702.00 W/m2 CLR
17:40 33.5 °C 19.9 °C 1012.9 hPa NE 9.7 km/h 12.9 km/h 45% 0.0 mm 681.60 W/m2 CLR
17:45 33.5 °C 20.3 °C 1012.9 hPa NE 4.8 km/h 12.9 km/h 46% 0.0 mm 666.00 W/m2 CLR
17:50 33.4 °C 20.2 °C 1012.8 hPa NNE 8.0 km/h 16.1 km/h 46% 0.0 mm 645.60 W/m2 CLR
17:55 33.3 °C 20.5 °C 1012.8 hPa NE 3.2 km/h 19.3 km/h 47% 0.0 mm 628.80 W/m2 CLR
18:00 33.3 °C 20.2 °C 1012.7 hPa NNE 4.8 km/h 14.5 km/h 46% 0.0 mm 607.20 W/m2 CLR
18:05 33.3 °C 20.1 °C 1012.6 hPa North 9.7 km/h 19.3 km/h 46% 0.0 mm 592.80 W/m2 CLR
18:10 33.2 °C 20.0 °C 1012.7 hPa North 8.0 km/h 16.1 km/h 46% 0.0 mm 576.00 W/m2 CLR
18:15 32.9 °C 19.8 °C 1012.7 hPa North 4.8 km/h 16.1 km/h 46% 0.0 mm 562.80 W/m2 CLR
18:20 33.0 °C 19.8 °C 1012.7 hPa North 8.0 km/h 16.1 km/h 46% 0.0 mm 546.00 W/m2 CLR
18:25 32.9 °C 18.7 °C 1012.7 hPa NNE 8.0 km/h 14.5 km/h 43% 0.0 mm 523.20 W/m2 CLR
18:30 32.9 °C 19.0 °C 1012.7 hPa NNE 4.8 km/h 16.1 km/h 44% 0.0 mm 504.00 W/m2 CLR
18:35 32.8 °C 19.0 °C 1012.7 hPa North 4.8 km/h 16.1 km/h 44% 0.0 mm 484.80 W/m2 CLR
18:40 32.8 °C 18.6 °C 1012.6 hPa NNE 1.6 km/h 12.9 km/h 43% 0.0 mm 468.00 W/m2 CLR
18:45 32.7 °C 18.1 °C 1012.7 hPa NE 4.8 km/h 16.1 km/h 42% 0.0 mm 451.20 W/m2 CLR
18:50 32.5 °C 18.3 °C 1012.6 hPa NNE 8.0 km/h 14.5 km/h 43% 0.0 mm 430.80 W/m2 CLR
18:55 32.4 °C 18.3 °C 1012.5 hPa NNE 11.3 km/h 19.3 km/h 43% 0.0 mm 414.00 W/m2 CLR
19:00 32.3 °C 17.8 °C 1012.6 hPa NNE 4.8 km/h 9.7 km/h 42% 0.0 mm 394.80 W/m2 CLR
19:05 32.3 °C 17.7 °C 1012.6 hPa North 4.8 km/h 16.1 km/h 42% 0.0 mm 375.60 W/m2 CLR
19:10 32.2 °C 17.7 °C 1012.6 hPa North 4.8 km/h 19.3 km/h 42% 0.0 mm 356.40 W/m2 CLR
19:15 32.1 °C 17.9 °C 1012.5 hPa NNE 8.0 km/h 14.5 km/h 43% 0.0 mm 339.60 W/m2 CLR
19:20 32.0 °C 17.8 °C 1012.5 hPa NNE 3.2 km/h 14.5 km/h 43% 0.0 mm 320.40 W/m2 CLR
19:25 31.9 °C 17.8 °C 1012.6 hPa North 8.0 km/h 19.3 km/h 43% 0.0 mm 301.20 W/m2 CLR
19:30 31.7 °C 17.6 °C 1012.7 hPa North 8.0 km/h 14.5 km/h 43% 0.0 mm 283.20 W/m2 CLR
19:35 31.6 °C 17.5 °C 1012.7 hPa NNE 3.2 km/h 12.9 km/h 43% 0.0 mm 261.60 W/m2 CLR
19:40 31.6 °C 17.4 °C 1012.7 hPa North 4.8 km/h 14.5 km/h 43% 0.0 mm 242.40 W/m2 CLR
19:45 31.3 °C 17.3 °C 1012.7 hPa North 8.0 km/h 14.5 km/h 43% 0.0 mm 225.60 W/m2 CLR
19:50 31.2 °C 17.5 °C 1012.7 hPa North 3.2 km/h 14.5 km/h 44% 0.0 mm 211.20 W/m2 CLR
19:55 31.2 °C 17.1 °C 1012.8 hPa NNE 4.8 km/h 12.9 km/h 43% 0.0 mm 189.60 W/m2 CLR
20:00 31.1 °C 17.0 °C 1012.9 hPa North 3.2 km/h 14.5 km/h 43% 0.0 mm 172.80 W/m2 CLR
20:05 30.9 °C 16.9 °C 1013.0 hPa North 4.8 km/h 12.9 km/h 43% 0.0 mm 152.40 W/m2 CLR
20:10 30.9 °C 16.8 °C 1013.1 hPa North 1.6 km/h 8.0 km/h 43% 0.0 mm 135.60 W/m2 FEW
20:15 30.8 °C 16.8 °C 1013.3 hPa North 4.8 km/h 9.7 km/h 43% 0.0 mm 117.60 W/m2 FEW
20:20 30.7 °C 16.7 °C 1013.3 hPa North 4.8 km/h 12.9 km/h 43% 0.0 mm 100.80 W/m2 FEW
20:25 30.6 °C 16.6 °C 1013.3 hPa North 3.2 km/h 12.9 km/h 43% 0.0 mm 88.80 W/m2 FEW
20:30 30.4 °C 16.4 °C 1013.4 hPa NNW 4.8 km/h 12.9 km/h 43% 0.0 mm 74.40 W/m2 FEW
20:35 30.3 °C 16.7 °C 1013.4 hPa NNW 3.2 km/h 8.0 km/h 44% 0.0 mm 58.80 W/m2 SCT
20:40 30.2 °C 16.6 °C 1013.5 hPa North 3.2 km/h 11.3 km/h 44% 0.0 mm 50.40 W/m2 SCT
20:45 30.1 °C 16.9 °C 1013.6 hPa North 3.2 km/h 8.0 km/h 45% 0.0 mm 42.00 W/m2 SCT
20:50 29.9 °C 16.7 °C 1013.6 hPa North 3.2 km/h 8.0 km/h 45% 0.0 mm 33.60 W/m2 SCT
20:55 29.8 °C 16.9 °C 1013.7 hPa North 3.2 km/h 8.0 km/h 46% 0.0 mm 30.00 W/m2 SCT
21:00 29.7 °C 16.8 °C 1013.8 hPa North 8.0 km/h 11.3 km/h 46% 0.0 mm 22.80 W/m2 SCT
21:05 29.4 °C 16.9 °C 1013.9 hPa North 3.2 km/h 8.0 km/h 47% 0.0 mm 16.80 W/m2 SCT
21:10 29.4 °C 16.9 °C 1014.0 hPa NNW 3.2 km/h 6.4 km/h 47% 0.0 mm 13.20 W/m2 FEW
21:15 29.3 °C 17.1 °C 1014.0 hPa NNW 4.8 km/h 8.0 km/h 48% 0.0 mm 8.40 W/m2 CLR
21:20 29.1 °C 17.0 °C 1013.9 hPa NNW 3.2 km/h 8.0 km/h 48% 0.0 mm 6.00 W/m2 OVC
21:25 29.0 °C 17.2 °C 1014.1 hPa NNW 3.2 km/h 9.7 km/h 49% 0.0 mm 0.00 W/m2 OVC
21:30 28.8 °C 17.7 °C 1014.2 hPa NNW 8.0 km/h 14.5 km/h 51% 0.0 mm 0.00 W/m2 OVC
21:35 28.7 °C 17.9 °C 1014.3 hPa NNW 4.8 km/h 9.7 km/h 52% 0.0 mm 0.00 W/m2 OVC
Juneau County Weather
Compliments of Weather Underground - 12 mb

Tiempo pasado